Spokane Fairchild, WA

7:26 AM PDT on October 23, 2017 (GMT -0700)
Fairchild Air Force Base

Weather History for KSKA - May, 2013

Change the Weather History Date:

Wednesday, May 1, 2013

  Actual Average Record
Temperature  
Mean Temperature 41 °F -  
Max Temperature 56 °F 58 °F 80 °F (1998)
Min Temperature 27 °F 36 °F 27 °F (2008)
Degree Days  
Heating Degree Days 24    
Moisture  
Dew Point 24 °F    
Average Humidity 55    
Maximum Humidity 90    
Minimum Humidity 25    
Precipitation  
Precipitation 0.00 in - - ()
Sea Level Pressure  
Sea Level Pressure 30.51 in    
Wind  
Wind Speed 5 mph (SE)    
Max Wind Speed 9 mph    
Max Gust Speed -    
Visibility 10 miles    
Events Rain    
Averages and records for this station are not official NWS values.
T = Trace of Precipitation, MM = Missing Value Source: NWS Daily Summary

Daily Weather History Graph

Daily Weather History Graph

Search for Another Location

Airport or City:

Trip Planner

Search our weather history database for the weather conditions in past years. The results will help you decide how hot, cold, wet, or windy it might be!

Date:

Astronomy

May. 01, 2013 Rise Set
Actual Time 5:32 AM PDT 8:03 PM PDT
Civil Twilight 4:58 AM PDT 8:37 PM PDT
Nautical Twilight 4:15 AM PDT 9:21 PM PDT
Astronomical Twilight 3:25 AM PDT 10:11 PM PDT
Moon 1:16 AM PDT (5/1) 11:17 AM PDT (5/1)
Length of Visible Light 15h 39m
Length of Day
14h 30m
Waning Gibbous, 58% of the Moon is Illuminated
May 1
Waning Gibbous
May 2
Last Quarter
May 9
New
May 17
First Quarter
May 24
Full

Hourly Weather History & Observations

Time (PDT) Temp. Windchill Dew Point Humidity Pressure Visibility Wind Dir Wind Speed Gust Speed Precip Events Conditions
12:04 AM 32.0 °F 26.4 °F 23.0 °F 69% 30.30 in 10.0 mi NE 5.8 mph - N/A   Clear
12:58 AM 33.6 °F 29.4 °F 22.1 °F 63% 30.38 in 10.0 mi ESE 4.6 mph - 0.00 in   Clear
1:58 AM 27.1 °F 23.2 °F 21.6 °F 80% 30.41 in 10.0 mi East 3.5 mph - N/A   Clear
2:37 AM 28.4 °F 23.3 °F 23.0 °F 80% 30.35 in 10.0 mi SE 4.6 mph - N/A   Clear
2:47 AM 28.4 °F - 23.0 °F 80% 30.35 in 10.0 mi Calm Calm - N/A   Clear
2:58 AM 29.5 °F 23.4 °F 23.2 °F 77% 30.41 in 10.0 mi SE 5.8 mph - 0.00 in   Clear
3:58 AM 29.1 °F 25.4 °F 24.3 °F 82% 30.44 in 10.0 mi ESE 3.5 mph - N/A   Clear
4:58 AM 27.5 °F 23.6 °F 25.0 °F 90% 30.46 in 10.0 mi SSE 3.5 mph - N/A   Clear
5:58 AM 27.1 °F 23.2 °F 24.3 °F 89% 30.49 in 10.0 mi East 3.5 mph - N/A   Clear
6:58 AM 30.0 °F - 27.0 °F 88% 30.51 in 10.0 mi ESE 2.3 mph - N/A   Clear
7:17 AM 32.0 °F 28.7 °F 28.4 °F 87% 30.46 in 10.0 mi ESE 3.5 mph - N/A   Clear
7:52 AM 35.6 °F 29.9 °F 28.4 °F 75% 30.48 in 10.0 mi ESE 6.9 mph - N/A   Clear
7:53 AM 37.4 °F 32.8 °F 28.4 °F 70% 30.48 in 10.0 mi ESE 5.8 mph - N/A   Clear
7:54 AM 37.4 °F 32.8 °F 28.4 °F 70% 30.48 in 10.0 mi East 5.8 mph - N/A   Clear
7:58 AM 37.4 °F 33.8 °F 28.4 °F 70% 30.55 in 10.0 mi ESE 4.6 mph - 0.00 in   Clear
8:24 AM 39.2 °F 35.0 °F 28.4 °F 65% 30.50 in 10.0 mi East 5.8 mph - N/A   Clear
8:37 AM 39.2 °F 35.9 °F 28.4 °F 65% 30.50 in 10.0 mi Variable 4.6 mph - N/A   Clear
8:58 AM 40.5 °F 35.8 °F 27.7 °F 60% 30.57 in 10.0 mi SE 6.9 mph - 0.00 in   Clear
9:58 AM 44.8 °F 42.4 °F 26.4 °F 49% 30.58 in 10.0 mi Variable 4.6 mph - N/A   Clear
10:58 AM 47.7 °F - 23.7 °F 39% 30.58 in 10.0 mi SSE 5.8 mph - N/A   Clear
11:58 AM 50.0 °F - 22.5 °F 34% 30.59 in 10.0 mi Variable 3.5 mph - N/A   Clear
12:58 PM 51.6 °F - 21.2 °F 30% 30.58 in 10.0 mi Variable 4.6 mph - N/A   Clear
1:30 PM 51.8 °F - 21.2 °F 30% 30.53 in 10.0 mi SW 6.9 mph - N/A Rain Light Rain
1:41 PM 53.6 °F - 21.2 °F 28% 30.53 in 10.0 mi Variable 2.3 mph - N/A   Clear
1:58 PM 53.8 °F - 20.5 °F 27% 30.59 in 10.0 mi Variable 4.6 mph - 0.00 in   Partly Cloudy
2:58 PM 55.2 °F - 21.2 °F 27% 30.59 in 10.0 mi Variable 3.5 mph - N/A   Clear
3:58 PM 55.8 °F - 21.2 °F 26% 30.58 in 10.0 mi South 4.6 mph - N/A   Clear
4:58 PM 55.8 °F - 19.8 °F 25% 30.59 in 10.0 mi SSW 9.2 mph - N/A   Clear
5:58 PM 55.4 °F - 19.9 °F 25% 30.58 in 10.0 mi SSW 5.8 mph - N/A   Clear
6:58 PM 54.1 °F - 21.2 °F 28% 30.58 in 10.0 mi South 6.9 mph - N/A   Clear
7:58 PM 49.8 °F - 22.5 °F 34% 30.59 in 10.0 mi SSE 4.6 mph - N/A   Clear
8:56 PM 46.4 °F 44.3 °F 23.0 °F 40% 30.56 in 10.0 mi SSE 4.6 mph - N/A   Clear
9:58 PM 44.2 °F 40.3 °F 23.2 °F 43% 30.62 in 10.0 mi South 6.9 mph - N/A   Clear
10:58 PM 44.2 °F - 23.7 °F 44% 30.61 in 10.0 mi SW 2.3 mph - N/A   Clear
11:58 PM 42.3 °F - 23.7 °F 48% 30.61 in 10.0 mi SW 2.3 mph - N/A   Clear